Location: Novokuznetsk
(53.7500°N, 87.1000°E)
Time: 04:45:56
(UTC+06:00)

ISS - Pass Details

Date: 18 July 2018
Orbit: 402 x 408 km, 51.6° (Epoch: 16 July)

Event Time Altitude Azimuth Distance (km) Brightness Sun altitude
Exits shadow 01:45:03 - 266° (W) 2,056 -0.5 -12.8°
Reaches altitude 10° 01:46:29 10° 263° (W) 1,468 -1.3 -12.7°
Maximum altitude 01:49:44 60° 183° (S) 473 -3.8 -12.6°
Drops below altitude 10° 01:52:59 10° 103° (ESE) 1,470 -0.9 -12.4°
Sets 01:55:05 0° 100° (E) 2,331 0.2 -12.3°
